Back to catalog

STARLINK-33780

AliveCommunicationsVLEO
NORAD 63459·PAYLOAD·🇺🇸 United States

Launched Apr 4, 2025 from Vandenberg Space Force Base

Loading…

Next Passes (next 24 hours)

TLE

FreshSource: CelesTrak SupGP

Epoch: Sep 14, 2026, 14:28 UTC

1 63459C 25069AC  26257.60326389 -.00036116  00000+0 -10674-2 0  2573
2 63459  53.1594 337.4502 0001279  87.0385 291.2860 15.34396980    17

Track STARLINK-33780 in real time with AllMySat

Download on the App Store